Location: St. Louis
(38.6270°N, 90.1994°W)
Time: 11:19:46
(UTC-06:00)

A-11 Canister half - Pass Details

Date: 06 December 2021
Orbit: 1524 x 1684 km, 47.3° (Epoch: 25 January)

Event Time Altitude Azimuth Distance (km) Brightness Sun altitude
Rises 02:17:32 0° 260° (W) 4,930 - -55.1°
Reaches altitude 10° 02:20:47 10° 265° (W) 3,946 - -54.5°
Maximum altitude 02:30:49 60° 344° (NNW) 1,877 - -52.6°
Exits shadow 02:35:50 33° 50° (NE) 2,554 10.3 -51.6°
Drops below altitude 10° 02:40:44 10° 63° (ENE) 3,895 11.6 -50.7°
Sets 02:43:56 0° 68° (ENE) 4,864 12.3 -50.1°
